Regional Weather Roundup
Issued by NWS

Current Version | Previous Version | Text Only | Print | Product List | Glossary On
Versions: 1 2 3 4 5 6 7 8 9 10 11 12 13 14 15 16 17 18 19 20 21 22 23 24 25 26 27 28 29 30 31 32 33 34 35 36 37 38 39 40 41 42 43 44 45 46 47 48
000
ASUS45 KCYS 040910
RWRWY

WYOMING REGIONAL WEATHER ROUNDUP
NATIONAL WEATHER SERVICE CHEYENNE WY
200 AM MST WED MAR 04 2015

NOTE:  "FAIR" INDICATES FEW OR NO CLOUDS BELOW 12,000 FEET
WITH NO SIGNIFICANT WEATHER AND/OR OBSTRUCTIONS TO VISIBILITY.

WYZ001-041000-
YELLOWSTONE NATIONAL PARK

CITY           SKY/WX    TMP DP  RH WIND       PRES   REMARKS
LK YELLOWSTONE   N/A    -14 -19  79 NW3       29.93R
W YELLOWSTONE  NOT AVBL

$$
WYZ002>013-054>058-071-098>099-041000-
NORTHERN WYOMING

CITY           SKY/WX    TMP DP  RH WIND       PRES   REMARKS
JACKSON        CLOUDY     9   5  85 N9        29.96R WCI  -5
CODY           FAIR       3  -2  78 SW3       30.03S
GREYBULL       FAIR       2  -3  80 SE5       30.12R WCI  -8
WORLAND        FAIR       2  -4  76 S7        30.10R WCI -11
SHERIDAN       FAIR       6 -10  47 NW7       30.08R WCI  -6
BUFFALO        FAIR       1  -9  62 CALM      30.00R
GILLETTE       FAIR       2  -5  72 SW14      30.03S WCI -16
HULETT         FAIR       5  -4  66 SW8       30.03S WCI  -8
NEWCASTLE      PTSUNNY    5  -2  72 N9        30.06S WCI  -9

$$
WYZ014>020-022>026-101>103-041000-
CENTRAL WYOMING

CITY           SKY/WX    TMP DP  RH WIND       PRES   REMARKS
BIG PINEY      CLOUDY     8   0  69 NW7       29.92R WCI  -3
PINEDALE       FAIR      -4  -9  77 NW9       29.92R WCI -20
DUBOIS         LGT SNOW   0  -6  78 CALM      29.91R
LANDER         FAIR       2  -7  66 SW7       30.02R WCI -11
RIVERTON       FAIR       1  -5  75 MISG      30.03S
CASPER         FAIR      -6 -11  79 W7        30.04R WCI -20
DOUGLAS        FAIR      -2  -6  83 NW9       30.07R WCI -18

$$
WYZ021-027>030-104>119-041000-
SOUTHERN WYOMING

CITY           SKY/WX    TMP DP  RH WIND       PRES   REMARKS
EVANSTON       CLOUDY    10   6  84 SW12      29.93R WCI  -5
FORT BRIDGER   FAIR      14  10  85 W12       29.95R WCI   0
ROCK SPRINGS   MOCLDY    -2  -6  83 NE7       29.96R WCI -15
DIXON          CLOUDY    11   7  85 NW3       29.98R
RAWLINS        CLOUDY    -4  -8  83 NW10      29.95R WCI -21
SARATOGA       LGT SNOW   5   1  85 NW7       29.93R WCI  -7
LARAMIE        FLURRIES   0  -3  87 N9        29.88R WCI -15
CHEYENNE       LGT SNOW   5   0  79 N7        29.94R WCI  -7
TORRINGTON     FAIR       5   1  83 W5        30.07S WCI  -4
PINE BLUFFS    CLOUDY    10   7  85 N10       30.02R WCI  -3

$$



USA.gov is the U.S. government's official web portal to all federal, state and local government web resources and services.